Tracking 20060 objects as of 6-Dec-2019
HD Live streaming from Space Station
objects crossing your sky now

COSMOS 2222

Track COSMOS 2222 now!
COSMOS 2222 is classified as:


NORAD ID: 22238
Int'l Code: 1992-081A
Perigee: 954.0 km
Apogee: 39,426.2 km
Inclination: 63.4 °
Period: 718.0 minutes
Semi major axis: 26561 km
RCS: 13.6381 m2 (large)
Launch date: November 25, 1992
Source: Commonwealth of Independent States (former USSR) (CIS)
Launch site: PLESETSK MISSILE AND SPACE COMPLEX (PKMTR)
aabbcc
Your satellite tracking list
Your tracking list is empty




NASA's NSSDC Master Catalog

Two Line Element Set (TLE):
1 22238U 92081A   19339.52791563 +.00000760 +00000-0 -16751-1 0  9995
2 22238 063.4366 068.8322 7242225 200.1198 101.5081 02.00555280198013
Source of the keplerian elements: AFSPC